Regional Weather Roundup
Issued by NWS

Home | Current Version | Previous Version | Text Only | Print | Product List | Glossary On
Versions: 1 2 3 4 5 6 7 8 9 10 11 12 13 14 15 16 17 18 19 20 21 22 23 24 25 26 27 28 29 30 31 32 33 34 35 36 37 38 39 40 41 42 43 44 45 46 47 48 49 50
000
ASUS43 KLOT 241408
RWRIL

ILLINOIS REGIONAL WEATHER ROUNDUP
NATIONAL WEATHER SERVICE CHICAGO/ROMEOVILLE IL
900 AM CDT WED AUG 24 2016

NOTE: "FAIR" INDICATES FEW OR NO CLOUDS BELOW 12,000 FEET WITH NO
SIGNIFICANT WEATHER AND/OR OBSTRUCTIONS TO VISIBILITY.

* THESE STATIONS ARE NOT UNDER NWS QUALITY CONTROL. THEY ALSO MAY NOT
  REPORT WEATHER SUCH AS PRECIPITATION OR FOG.

ILZ001-002-007-009-015-016-024-241500-
NORTHWEST ILLINOIS

CITY           SKY/WX    TMP DP  RH WIND       PRES   REMARKS
MOLINE         CLOUDY    74  71  91 S3        29.92F
STERLING*      RAIN      70  69  97 VRB5      29.97S
SAVANNA*       CLOUDY    72  70  95 SE10      29.94F
$$

ILZ003-004-008-010-011-017-018-241500-
NORTH CENTRAL ILLINOIS

CITY           SKY/WX    TMP DP  RH WIND       PRES   REMARKS
ROCKFORD       CLOUDY    72  70  93 SE9       29.99S
FREEPORT*      CLOUDY    70  69  97 SE7       29.97F
ROCHELLE*      DRIZZLE   70  69  97 CALM      29.99S
DE KALB*       DRIZZLE   71  70  97 S6        30.01S
$$

ILZ005-006-012>014-019>023-241500-
NORTHEAST ILLINOIS

CITY           SKY/WX    TMP DP  RH WIND       PRES   REMARKS
CHICAGO-OHARE  LGT RAIN  71  69  93 SW7       30.00F FOG
CHICAGO-MIDWAY LGT RAIN  73  69  87 SW8       30.01F
AURORA         LGT RAIN  72  70  93 SE5       30.00F FOG
LANSING*       RAIN      71  68  89 S6        30.03F
JOLIET*        RAIN      73  72  97 S5        30.02R
WAUKEGAN       LGT RAIN  71  69  93 VRB5      30.00F FOG
DUPAGE AIRPORT LGT RAIN  71  69  93 S8        30.00F FOG
KANKAKEE*      CLOUDY    71  70  96 S8        30.03F
WHEELING       LGT RAIN  71  69  93 SW3       30.02S FOG
MORRIS*        RAIN      72  71  97 CALM      30.01S
ROMEOVILLE*    RAIN      71  69  92 S6        30.01F
NORTHERLY ISL    N/A     72  68  87 SW5         N/A
$$

LMZ740>746-241500-
SOUTHERN LAKE MICHIGAN

STATION/POSITION SKY/WX   TEMP    WIND        PRES    VSBY  WAVE
                          AIR SEA DIR/SP/G                  HT/PER
                          (F)     (DEG/KT/KT) (MB)    (MI)  (FT/S)
SOUTHERN BUOY              74 75  200/ 23/ 29 1015.0R         5/ 5
WILMETTE HARBOR            70 69  240/  8/ 10   N/A           2/ 4
HARRISON CRIB              73     210/ 20/ 22   N/A
BURNHAM HARBOR             72     200/  3/ 16   N/A
CALUMET HARBOR             72     190/  9/ 14 1016.2R
BURNS HARBOR               73     190/ 11/ 19 1017.3R
MICHIGAN CITY              72     150/ 15/ 20   N/A
MICHIGAN CITY 6N           73 73  190/ 17/ 23   N/A           2/ 2
ST. JOSEPH                 74 74  190/ 14/ 19 1016.6R         3/ 4
$$

ILZ025>027-034>036-040-047-049-050-058-095>099-241500-
WEST-CENTRAL ILLINOIS

CITY           SKY/WX    TMP DP  RH WIND       PRES   REMARKS
QUINCY         CLOUDY    78  74  87 W9        29.96R HX  81
GALESBURG*     CLOUDY    73  72  96 S8        29.94S
MACOMB*        CLOUDY    75  73  92 SW6       29.97F
JACKSONVILLE*  CLOUDY    77  73  86 S16       29.94F
PITTSFIELD*    CLOUDY    80  73  78 S14G25    29.93F HX  85
$$

ILZ028>032-037-038-041>044-048-051>054-059>061-241500-
CENTRAL ILLINOIS

CITY           SKY/WX    TMP DP  RH WIND       PRES   REMARKS
PONTIAC        CLOUDY    73  73 100 S6        30.01S
BLOOMINGTON    CLOUDY    73  72  96 S12       30.00F
DECATUR        MOSUNNY   78  74  87 S18G24    30.01F HX  81
PEORIA         LGT RAIN  75  74  96 S12       29.96S FOG
LACON*         TSTM      73  71  95 SE6       29.95F
LINCOLN*       CLOUDY    77  75  94 S8        29.97F
SPRINGFIELD    CLOUDY    78  73  84 S15G22    29.97F HX  81
TAYLORVILLE    CLOUDY    78  74  90 S17       30.02F
$$

ILZ033-039-045-046-055>057-062-063-241500-
EAST-CENTRAL ILLINOIS

CITY           SKY/WX    TMP DP  RH WIND       PRES   REMARKS
CHAMPAIGN      TSTM      73  71  93 VRB6      30.05S VSB 1/2
RANTOUL*       TSTM      73  73  97 S16G31    30.06S VSB 1
MATTOON        CLOUDY    76  71  85 S12G25    30.05F
PARIS*         CLOUDY    75  73  92 S7        30.07F
$$

ILZ079-100>102-241500-
SOUTHWEST ILLINOIS

CITY           SKY/WX    TMP DP  RH WIND       PRES   REMARKS
ALTON          PTSUNNY   79  73  83 S12       30.04  HX  82
BELLEVILLE     MOSUNNY   81  75  83 SW12G22   30.04F HX  86
CAHOKIA*       PTSUNNY   81  73  76 SW10G21   30.04S HX  86
SPARTA*        MOSUNNY   79  74  86 S14       30.09F HX  82
$$

ILZ064>066-069>071-074>076-080>082-084>086-088>090-092>094-241500-
SOUTH-CENTRAL ILLINOIS

CITY           SKY/WX    TMP DP  RH WIND       PRES   REMARKS
CARBONDALE     CLOUDY    79  74  84 SW9       30.12R HX  82
CAIRO*         CLOUDY    78  75  91 S7        30.14S HX  80
EFFINGHAM*     PTSUNNY   78  76  94 S14       30.09F
MARION         PTSUNNY   79  75  89 S8        30.13S HX  82
MT. VERNON     PTSUNNY   79  72  78 SW17      30.11S HX  82
CENTRALIA*     MOSUNNY   80  76  89 S13G22    30.08S HX  84
SALEM*         CLOUDY    79  74  83 S15G22    30.08F HX  83
$$

ILZ067-068-072-073-078-083-087-091-241500-
SOUTHEAST ILLINOIS

CITY           SKY/WX    TMP DP  RH WIND       PRES   REMARKS
LAWRENCEVILLE  MOSUNNY   79  74  84 S14       30.12F HX  82
FLORA*         CLOUDY    79  75  87 S13       30.10S HX  82
FAIRFIELD*     MOSUNNY   79  74  86 S8        30.10F HX  82
HARRISBURG*    PTSUNNY   79  74  86 SW9       30.13S HX  83
ROBINSON*      MOSUNNY   78  74  88 S9        30.11F HX  80
CARMI*         CLOUDY    77  74  91 S8        30.12F
$$

ABBREVIATIONS USED IN REMARKS
   TC - TEMPERATURE IN CELSIUS
  WCI - WIND CHILL INDEX
   HX - HEAT INDEX
  VSB - VISIBILITY
$$





USA.gov is the U.S. government's official web portal to all federal, state and local government web resources and services.